Regional Weather Roundup
Issued by NWS Mt. Holly, NJ

Home | Current Version | Previous Version | Text Only | Print | Product List | Glossary On
Versions: 1 2 3 4 5 6 7 8 9 10 11 12 13 14 15 16 17 18 19 20 21 22 23 24 25 26 27
000
ASUS41 KPHI 172112
RWRPHI

REGIONAL WEATHER ROUNDUP
NATIONAL WEATHER SERVICE MOUNT HOLLY NJ
500 PM EDT THU AUG 17 2017

NOTE:  "FAIR" INDICATES FEW OR NO CLOUDS BELOW 12,000 FEET WITH NO
SIGNIFICANT WEATHER AND/OR OBSTRUCTIONS TO VISIBILITY.

 * = STATION DOES NOT REPORT PRECIPITATION (E.G. RAIN, SNOW, ETC.)
        OR FOG.

NJZ015>026-172200-
SOUTHERN NEW JERSEY

CITY           SKY/WX    TMP DP  RH WIND       PRES   REMARKS
POMONA         SUNNY     84  67  56 S9        29.97F
WILDWOOD*      CLOUDY    81  73  76 S12       29.98S
MILLVILLE      PTSUNNY   84  73  69 VRB5      29.97S HX  90
WRIGHTSTOWN    MOSUNNY   83  70  65 SE9       29.94F
MOUNT HOLLY    SUNNY     82  71  69 VRB7      29.95F
TRENTON        MOSUNNY   87  65  47 MISG      29.95F

$$
NJZ001>014-172200-
NORTHERN NEW JERSEY

CITY           SKY/WX    TMP DP  RH WIND       PRES   REMARKS
SUSSEX         MOSUNNY   82  64  54 SW8       29.98F
ANDOVER*         N/A     81  64  56 SW5       29.98F
MORRISTOWN     MOSUNNY   82  64  54 S10       29.98F
NEWARK         PTSUNNY   79  61  53 SE9       29.98F
TETERBORO      SUNNY     83  62  49 S9        29.97F
CALDWELL       SUNNY     81  65  58 S6        29.98F
SOMERVILLE     MOSUNNY   85  70  60 CALM      29.95F
ALLAIRE*       CLOUDY    78  69  73 E10       30.00F
TOMS RIVER*    SUNNY     83  70  64 SE8       29.99F

$$
PAZ043-044-047-054-055-060>062-066>071-172200-
EASTERN PENNSYLVANIA

CITY           SKY/WX    TMP DP  RH WIND       PRES   REMARKS
PHILADELPHIA   MOSUNNY   86  66  51 S8        29.95F
NORTH PHILA    MOSUNNY   87  66  49 SE14      29.96F
BLUE BELL*     MOSUNNY   84  64  51 SE5       29.97S
DOYLESTOWN     SUNNY     85  65  51 NE3       29.96F
QUAKERTOWN*    SUNNY     86  64  48 S5        29.98F
POTTSTOWN      MOSUNNY   84  66  54 S5        29.97F
LANCASTER      PTSUNNY   84  73  69 SE8       29.94F HX  90
COATESVILLE    MOSUNNY   82  68  61 VRB6      29.98F
READING        PTSUNNY   85  70  60 SE8       29.94F
ALLENTOWN      MOSUNNY   86  64  47 S9        29.96F
MOUNT POCONO   SUNNY     76  63  64 S9        30.03F
HAZLETON         N/A     82  64  54 S7        30.03F
LEHIGHTON      FAIR      82  64  54 S6        29.97F
WILKES BARRE   PTSUNNY   82  64  54 VRB5      29.97F

$$
DEZALL-MDZ008-012-015-019-020-172200-
DELAWARE AND EASTERN MARYLAND

CITY           SKY/WX    TMP DP  RH WIND       PRES   REMARKS
WILMINGTON     SUNNY     84  74  71 S14       29.96F HX  91
DOVER          MOSUNNY   79  72  78 SE9       29.96R
GEORGETOWN     CLOUDY    86  74  67 S12       29.96F HX  94
EASTON         PTSUNNY   86  72  62 S9        29.98F HX  92
ABERDEEN       CLOUDY    82  75  78 E7        29.94F
PATUXENT       CLOUDY    82  72  71 S9        29.94F
OCEAN CITY     SUNNY     81  74  79 S7        29.98F
WALLOPS ISLAND SUNNY     81  71  71 S13       29.98F
CAMBRIDGE      SUNNY     86  73  66 S9G17     29.95F HX  93
SALISBURY      MOSUNNY   85  75  72 S10       29.96F HX  93

$$
PAZ001-021-NYZ056-072-MDZ011-DCZ001-172200-
OTHER NEARBY LOCATIONS

CITY           SKY/WX    TMP DP  RH WIND       PRES   REMARKS
HARRISBURG     PTSUNNY   85  74  69 SE8       29.92F HX  92
STATE COLLEGE  MOSUNNY   81  70  69 S7        29.95F
WILLIAMSPORT   PTSUNNY   85  70  60 S9        29.91F
BINGHAMTON     MOSUNNY   77  63  61 S7        29.98F
NEW YORK CITY  SUNNY     78  61  55 CALM      30.02F
BALTIMORE      PTSUNNY   81  76  84 SE10G18   29.94S
WASHINGTON DC  MOSUNNY   85  75  72 S12       29.93F HX  93

$$




USA.gov is the U.S. government's official web portal to all federal, state and local government web resources and services.